Location: Val-d'Or
(48.1170°N, 77.7670°W)
Time: 13:34:08
(UTC-04:00)

OTV 5 (USA 277) - Visible Passes

Search period start: 21 August 2018 00:00
Search period end: 31 August 2018 00:00
Orbit: 316 x 334 km, 54.5° (Epoch: 20 August)

Date Brightness Start Highest point End Pass type
(mag) Time Alt. Az. Time Alt. Az. Time Alt. Az.
21 Aug ? 21:57:59 10° W 22:00:36 36° NNW 22:03:00 11° NE visible
21 Aug ? 23:33:25 10° NW 23:34:03 14° NW 23:34:03 14° NW visible
22 Aug ? 20:40:32 10° WSW 20:43:20 87° SSE 20:46:07 10° ENE visible
22 Aug ? 22:15:43 10° WNW 22:18:06 25° NNW 22:19:42 15° NE visible
23 Aug ? 20:58:00 10° W 21:00:42 44° NNW 21:03:23 10° NE visible
23 Aug ? 22:33:27 10° WNW 22:35:40 21° N 22:36:17 19° NNE visible
24 Aug ? 21:15:42 10° WNW 21:18:10 27° NNW 21:20:38 10° NE visible
24 Aug ? 22:51:00 10° NW 22:52:48 20° N 22:52:48 20° N visible
25 Aug ? 21:33:27 10° WNW 21:35:43 22° N 21:37:58 10° NE visible
25 Aug ? 23:08:22 10° NW 23:09:17 17° NW 23:09:17 17° NW visible
26 Aug ? 21:51:04 10° NW 21:53:18 21° N 21:54:43 15° NE visible
26 Aug ? 23:25:37 10° NW 23:25:44 11° NW 23:25:44 11° NW visible
27 Aug ? 20:33:26 10° WNW 20:35:46 23° N 20:38:05 10° NE visible
27 Aug ? 22:08:30 10° NW 22:10:52 24° N 22:11:09 23° NNE visible
28 Aug ? 20:51:07 10° NW 20:53:20 21° N 20:55:32 10° NE visible
28 Aug ? 22:25:47 10° NW 22:27:36 28° NNW 22:27:36 28° NNW visible
29 Aug ? 21:08:37 10° NW 21:10:56 22° N 21:13:02 11° ENE visible
29 Aug ? 22:43:02 10° NW 22:44:04 20° NW 22:44:04 20° NW visible
30 Aug ? 21:25:56 10° NW 21:28:27 29° NNE 21:29:30 22° ENE visible
30 Aug ? 23:00:22 10° WNW 23:00:32 11° WNW 23:00:32 11° WNW visible
